星链-4513 (STARLINK-4513 )

导读

STARLINK-4513是美国太空探索技术公司(SpaceX)星链(Starlink)互联网卫星星座的组成部分,于2022年8月19日发射升空,属于星链星座分组部署任务中的一颗卫星,旨在为全球提供高速低延迟的卫星互联网覆盖,目前已在轨运行,服务全球多地用户的互联网接入需求。

基本信息
目录编号:
53548
目录名称:
STARLINK-4513
国际标识:
2022-101X
轨道中心:
EARTH
卫星名称:
星链-4513
卫星全名:
星链-4513 (STARLINK-4513 )
卫星状态:
在轨 (已飞行1485 天)
发射日期:
2022-08-19 UTC
国别 :
美国 (US)
星等 :
--
该卫星已列入 空间交会检测服务 Space Conjunction Data Service (SCDS) ,当前飞行风险评估等级: 无高风险
轨道信息
数据来源 国际轨道数据 AOE轨道数据
星历时间 2026-09-11T21:07:46+0800
21小时前
查看轨道信息
2026-09-07T05:00:00+0800
5天前
查看轨道信息
半长轴 6917.893km 6917.929km
偏心率 0.000115 0.0001608
轨道倾角 53.161° 53.161°
近地点辐角 85.989° 74.002°
升交点赤经 309.168° 330.172°
平近点角 274.123° 94.447°
近地点 538.96km 538.679km
远地点 540.552km 540.905km
周期 95.438分钟 95.439分钟
每日圈数 15.088359 15.088244
详细信息
固有亮度:
5
最大亮度:
2.5
卫星平台:
Starlink v1.5
覆盖范围:
全球
运营商:
太空探索技术公司
运营商所在国:
美国
制造商(研发单位):
太空探索技术公司
制造商所在国:
美国
使用方式:
暂无
卫星简介
星链(Starlink)计划是由太空探索技术公司(SpaceX)提出的一个巨型低轨卫星互联网星座项目,计划在2019年至2024年间在太空搭建由约1.2万颗卫星组成的“星链”网络,其中1584颗将部署在地球上空550千米处的近地轨道,并从2020年开始工作。该卫星仍在工作。
2D轨道图
3D轨道图
轨道高度分析图
轨道倾角分析图
轨道综合分析图
查看轨道综合分析图
交会数据列表
事件ID 空间交会对象 最接近时刻(TCA) 交会距离 交会风险概率(CRP) 交会风险指数(CRI) 操作
CDM_260913-095405-354806-325421
YAM-8 (63254)
2026-09-13T
09:54:08+0000
1.649 km
极远距离
4.784563E-6 低风险 0.49
与全量物体交会距离演化趋势
与全量物体交会风险概率演化趋势